Time,TemperatureF,DewpointF,PressureIn,WindDirection,WindDirectionDegrees,WindSpeedMPH,WindSpeedGustMPH,Humidity,HourlyPrecipIn,Conditions,Clouds,dailyrainin,SolarRadiationWatts/m^2,SoftwareType,DateUTC
2013-08-30 00:00:00,83.7,62.0,29.66,SE,142,1.0,5.0,48,0.00,,SKC,0.00,0.00,VWS V14.01,2013-08-30 05:00:00,
2013-08-30 00:01:00,83.8,62.0,29.66,SE,142,2.0,5.0,48,0.00,,SKC,0.00,0.00,VWS V14.00,2013-08-30 05:01:00,
2013-08-30 00:06:00,83.5,61.8,29.65,SE,142,1.0,5.0,48,0.00,,SKC,0.00,0.00,VWS V14.00,2013-08-30 05:06:00,
2013-08-30 00:10:00,83.4,61.7,29.66,SE,142,1.0,6.0,48,0.00,,SKC,0.00,0.00,VWS V14.00,2013-08-30 05:10:00,
2013-08-30 00:11:00,83.4,61.7,29.66,SE,142,2.0,6.0,48,0.00,,SKC,0.00,0.00,VWS V14.00,2013-08-30 05:11:00,
2013-08-30 00:16:00,83.3,62.2,29.65,SE,142,4.0,5.0,49,0.00,,SKC,0.00,0.00,VWS V14.00,2013-08-30 05:16:00,
2013-08-30 00:20:00,83.2,62.1,29.65,SE,142,2.0,5.0,49,0.00,,SKC,0.00,0.00,VWS V14.00,2013-08-30 05:20:00,
2013-08-30 00:21:00,83.2,62.1,29.65,SE,142,2.0,5.0,49,0.00,,SKC,0.00,0.00,VWS V14.00,2013-08-30 05:21:00,
2013-08-30 00:26:00,83.2,62.1,29.65,SE,142,2.0,5.0,49,0.00,,SKC,0.00,0.00,VWS V14.00,2013-08-30 05:26:00,
2013-08-30 00:30:00,83.2,62.1,29.65,SE,142,2.0,5.0,49,0.00,,SKC,0.00,0.00,VWS V14.00,2013-08-30 05:30:00,
2013-08-30 00:31:00,83.2,62.1,29.65,SE,142,2.0,5.0,49,0.00,,SKC,0.00,0.00,VWS V14.00,2013-08-30 05:31:00,
2013-08-30 00:36:00,83.3,62.2,29.65,SE,142,2.0,4.0,49,0.00,,SKC,0.00,0.00,VWS V14.00,2013-08-30 05:36:00,
2013-08-30 00:40:00,83.3,62.2,29.66,SE,142,2.0,4.0,49,0.00,,SKC,0.00,0.00,VWS V14.00,2013-08-30 05:40:00,
2013-08-30 00:41:00,83.3,62.2,29.66,SE,142,2.0,4.0,49,0.00,,SKC,0.00,0.00,VWS V14.00,2013-08-30 05:41:00,
2013-08-30 00:46:00,83.3,62.2,29.66,SE,142,2.0,2.0,49,0.00,,SKC,0.00,0.00,VWS V14.00,2013-08-30 05:46:00,
2013-08-30 00:50:00,83.3,62.2,29.65,SE,142,2.0,4.0,49,0.00,,SKC,0.00,0.00,VWS V14.00,2013-08-30 05:50:00,
2013-08-30 00:51:00,83.3,62.2,29.65,SE,142,0.0,4.0,49,0.00,,SKC,0.00,0.00,VWS V14.00,2013-08-30 05:51:00,
2013-08-30 00:56:00,83.3,62.2,29.65,SE,142,0.0,4.0,49,0.00,,SKC,0.00,0.00,VWS V14.00,2013-08-30 05:56:00,
2013-08-30 01:00:00,83.3,62.2,29.65,SE,142,0.0,4.0,49,0.00,,SKC,0.00,0.00,VWS V14.00,2013-08-30 06:00:00,
2013-08-30 01:01:00,83.3,62.2,29.65,SE,142,0.0,4.0,49,0.00,,SKC,0.00,0.00,VWS V14.00,2013-08-30 06:01:00,
2013-08-30 01:06:00,83.2,62.1,29.65,SE,142,0.0,1.0,49,0.00,,SKC,0.00,0.00,VWS V14.00,2013-08-30 06:06:00,
2013-08-30 01:10:00,83.2,62.1,29.65,SE,142,0.0,1.0,49,0.00,,SKC,0.00,0.00,VWS V14.00,2013-08-30 06:10:00,
2013-08-30 01:11:00,83.2,62.1,29.65,SE,142,0.0,1.0,49,0.00,,SKC,0.00,0.00,VWS V14.00,2013-08-30 06:11:00,
2013-08-30 01:16:00,83.1,62.0,29.65,SE,142,0.0,4.0,49,0.00,,SKC,0.00,0.00,VWS V14.00,2013-08-30 06:16:00,
2013-08-30 01:20:00,83.0,61.9,29.65,SE,142,0.0,4.0,49,0.00,,SKC,0.00,0.00,VWS V14.00,2013-08-30 06:20:00,
2013-08-30 01:21:00,83.0,61.9,29.65,SE,142,0.0,4.0,49,0.00,,SKC,0.00,0.00,VWS V14.00,2013-08-30 06:21:00,
2013-08-30 01:26:00,82.9,61.8,29.65,SE,142,1.0,2.0,49,0.00,,SKC,0.00,0.00,VWS V14.00,2013-08-30 06:26:00,
2013-08-30 01:30:00,82.8,62.3,29.65,SE,142,0.0,2.0,50,0.00,,SKC,0.00,0.00,VWS V14.00,2013-08-30 06:30:00,
2013-08-30 01:31:00,82.8,62.3,29.65,SE,142,0.0,2.0,50,0.00,,SKC,0.00,0.00,VWS V14.00,2013-08-30 06:31:00,
2013-08-30 01:36:00,82.7,62.2,29.64,SE,142,1.0,2.0,50,0.00,,SKC,0.00,0.00,VWS V14.00,2013-08-30 06:36:00,
2013-08-30 01:40:00,82.5,62.0,29.64,SE,142,2.0,4.0,50,0.00,,SKC,0.00,0.00,VWS V14.00,2013-08-30 06:40:00,
2013-08-30 01:41:00,82.5,62.0,29.64,SE,142,1.0,4.0,50,0.00,,SKC,0.00,0.00,VWS V14.00,2013-08-30 06:41:00,
2013-08-30 01:46:00,82.4,61.9,29.64,SE,142,2.0,4.0,50,0.00,,SKC,0.00,0.00,VWS V14.00,2013-08-30 06:46:00,
2013-08-30 01:50:00,82.3,62.4,29.64,SE,142,2.0,4.0,51,0.00,,SKC,0.00,0.00,VWS V14.00,2013-08-30 06:50:00,
2013-08-30 01:51:00,82.2,62.3,29.64,SE,142,2.0,4.0,51,0.00,,SKC,0.00,0.00,VWS V14.00,2013-08-30 06:51:00,
2013-08-30 01:56:00,82.1,62.2,29.64,SE,142,0.0,4.0,51,0.00,,SKC,0.00,0.00,VWS V14.00,2013-08-30 06:56:00,
2013-08-30 02:00:00,82.0,62.1,29.64,SE,142,0.0,4.0,51,0.00,,SKC,0.00,0.00,VWS V14.00,2013-08-30 07:00:00,
2013-08-30 02:01:00,82.0,62.1,29.64,SE,142,2.0,4.0,51,0.00,,SKC,0.00,0.00,VWS V14.00,2013-08-30 07:01:00,
2013-08-30 02:06:00,81.9,62.6,29.64,SE,142,1.0,4.0,52,0.00,,SKC,0.00,0.00,VWS V14.00,2013-08-30 07:06:00,
2013-08-30 02:10:00,81.8,62.5,29.64,SE,142,4.0,5.0,52,0.00,,SKC,0.00,0.00,VWS V14.00,2013-08-30 07:10:00,
2013-08-30 02:11:00,81.8,62.5,29.64,SE,142,1.0,5.0,52,0.00,,SKC,0.00,0.00,VWS V14.00,2013-08-30 07:11:00,
2013-08-30 02:16:00,81.7,62.4,29.65,SE,142,1.0,4.0,52,0.00,,SKC,0.00,0.00,VWS V14.00,2013-08-30 07:16:00,
2013-08-30 02:20:00,81.6,62.3,29.65,SE,142,0.0,4.0,52,0.00,,SKC,0.00,0.00,VWS V14.00,2013-08-30 07:20:00,
2013-08-30 02:21:00,81.6,62.3,29.65,SE,142,0.0,4.0,52,0.00,,SKC,0.00,0.00,VWS V14.00,2013-08-30 07:21:00,
2013-08-30 02:26:00,81.6,62.3,29.64,SE,142,0.0,4.0,52,0.00,,SKC,0.00,0.00,VWS V14.00,2013-08-30 07:26:00,
2013-08-30 02:30:00,81.5,62.2,29.65,SE,142,0.0,4.0,52,0.00,,SKC,0.00,0.00,VWS V14.00,2013-08-30 07:30:00,
2013-08-30 02:31:00,81.5,62.2,29.65,SE,142,0.0,4.0,52,0.00,,SKC,0.00,0.00,VWS V14.00,2013-08-30 07:31:00,
2013-08-30 02:36:00,81.4,62.6,29.65,SE,142,2.0,2.0,53,0.00,,SKC,0.00,0.00,VWS V14.00,2013-08-30 07:36:00,
2013-08-30 02:40:00,81.3,62.5,29.65,SE,142,0.0,4.0,53,0.00,,SKC,0.00,0.00,VWS V14.00,2013-08-30 07:40:00,
2013-08-30 02:41:00,81.3,62.5,29.65,SE,142,1.0,4.0,53,0.00,,SKC,0.00,0.00,VWS V14.00,2013-08-30 07:41:00,
2013-08-30 02:46:00,81.2,62.5,29.65,SE,142,2.0,4.0,53,0.00,,SKC,0.00,0.00,VWS V14.00,2013-08-30 07:46:00,
2013-08-30 02:50:00,81.1,62.4,29.65,SE,142,1.0,5.0,53,0.00,,SKC,0.00,0.00,VWS V14.00,2013-08-30 07:50:00,
2013-08-30 02:51:00,81.1,62.4,29.65,SE,142,2.0,5.0,53,0.00,,SKC,0.00,0.00,VWS V14.00,2013-08-30 07:51:00,
2013-08-30 02:56:00,81.0,62.3,29.65,SE,142,0.0,5.0,53,0.00,,SKC,0.00,0.00,VWS V14.00,2013-08-30 07:56:00,
2013-08-30 03:00:00,80.9,62.7,29.65,SE,142,0.0,5.0,54,0.00,,SKC,0.00,0.00,VWS V14.00,2013-08-30 08:00:00,
2013-08-30 03:01:00,80.9,62.7,29.65,SE,142,0.0,5.0,54,0.00,,SKC,0.00,0.00,VWS V14.00,2013-08-30 08:01:00,
2013-08-30 03:06:00,80.8,62.6,29.65,SE,142,0.0,2.0,54,0.00,,SKC,0.00,0.00,VWS V14.00,2013-08-30 08:06:00,
2013-08-30 03:10:00,80.7,62.5,29.65,SE,142,1.0,2.0,54,0.00,,SKC,0.00,0.00,VWS V14.00,2013-08-30 08:10:00,
2013-08-30 03:11:00,80.7,62.5,29.65,SE,142,0.0,2.0,54,0.00,,SKC,0.00,0.00,VWS V14.00,2013-08-30 08:11:00,
2013-08-30 03:16:00,80.6,62.4,29.64,SE,142,1.0,5.0,54,0.00,,SKC,0.00,0.00,VWS V14.00,2013-08-30 08:16:00,
2013-08-30 03:20:00,80.4,62.8,29.65,SE,142,2.0,6.0,55,0.00,,SKC,0.00,0.00,VWS V14.00,2013-08-30 08:20:00,
2013-08-30 03:21:00,80.4,62.8,29.65,SE,142,0.0,6.0,55,0.00,,SKC,0.00,0.00,VWS V14.00,2013-08-30 08:21:00,
2013-08-30 03:26:00,80.4,62.8,29.64,SE,142,0.0,2.0,55,0.00,,SKC,0.00,0.00,VWS V14.00,2013-08-30 08:26:00,
2013-08-30 03:30:00,80.2,62.6,29.64,SE,142,0.0,5.0,55,0.00,,SKC,0.00,0.00,VWS V14.00,2013-08-30 08:30:00,
2013-08-30 03:31:00,80.2,62.6,29.64,SE,142,0.0,5.0,55,0.00,,SKC,0.00,0.00,VWS V14.00,2013-08-30 08:31:00,
2013-08-30 03:36:00,80.1,62.5,29.64,SE,142,0.0,5.0,55,0.00,,SKC,0.00,0.00,VWS V14.00,2013-08-30 08:36:00,
2013-08-30 03:40:00,80.0,62.9,29.64,SE,142,0.0,5.0,56,0.00,,SKC,0.00,0.00,VWS V14.00,2013-08-30 08:40:00,
2013-08-30 03:41:00,80.0,62.9,29.64,SE,142,2.0,5.0,56,0.00,,SKC,0.00,0.00,VWS V14.00,2013-08-30 08:41:00,
2013-08-30 03:46:00,79.9,62.8,29.64,SE,142,0.0,4.0,56,0.00,,SKC,0.00,0.00,VWS V14.00,2013-08-30 08:46:00,
2013-08-30 03:50:00,79.7,62.6,29.64,SE,142,0.0,4.0,56,0.00,,SKC,0.00,0.00,VWS V14.00,2013-08-30 08:50:00,
2013-08-30 03:51:00,79.8,62.7,29.64,SE,142,0.0,4.0,56,0.00,,SKC,0.00,0.00,VWS V14.00,2013-08-30 08:51:00,
2013-08-30 03:56:00,79.6,63.0,29.64,SE,142,1.0,7.0,57,0.00,,SKC,0.00,0.00,VWS V14.00,2013-08-30 08:56:00,
2013-08-30 04:00:00,79.5,63.0,29.64,SE,142,0.0,7.0,57,0.00,,SKC,0.00,0.00,VWS V14.00,2013-08-30 09:00:00,
2013-08-30 04:01:00,79.5,63.0,29.64,SE,142,0.0,7.0,57,0.00,,SKC,0.00,0.00,VWS V14.00,2013-08-30 09:01:00,
2013-08-30 04:06:00,79.4,62.9,29.64,SE,142,4.0,5.0,57,0.00,,SKC,0.00,0.00,VWS V14.00,2013-08-30 09:06:00,
2013-08-30 04:10:00,79.3,62.8,29.64,SE,142,0.0,5.0,57,0.00,,SKC,0.00,0.00,VWS V14.00,2013-08-30 09:10:00,
2013-08-30 04:11:00,79.3,62.8,29.64,SE,142,0.0,5.0,57,0.00,,SKC,0.00,0.00,VWS V14.00,2013-08-30 09:11:00,
2013-08-30 04:16:00,79.2,62.7,29.64,SE,142,1.0,4.0,57,0.00,,SKC,0.00,0.00,VWS V14.00,2013-08-30 09:16:00,
2013-08-30 04:20:00,79.2,63.2,29.64,SE,142,0.0,7.0,58,0.00,,SKC,0.00,0.00,VWS V14.00,2013-08-30 09:20:00,
2013-08-30 04:21:00,79.1,63.1,29.64,SE,142,0.0,7.0,58,0.00,,SKC,0.00,0.00,VWS V14.00,2013-08-30 09:21:00,
2013-08-30 04:26:00,79.1,63.1,29.64,SE,142,2.0,4.0,58,0.00,,SKC,0.00,0.00,VWS V14.00,2013-08-30 09:26:00,
2013-08-30 04:30:00,79.0,63.0,29.65,SE,142,4.0,4.0,58,0.00,,SKC,0.00,0.00,VWS V14.00,2013-08-30 09:30:00,
2013-08-30 04:31:00,79.0,63.0,29.65,SE,142,2.0,4.0,58,0.00,,SKC,0.00,0.00,VWS V14.00,2013-08-30 09:31:00,
2013-08-30 04:40:00,78.8,63.3,29.64,SE,135,3.0,8.0,59,0.00,,SKC,0.00,0.00,VWS V14.00,2013-08-30 09:40:00,
2013-08-30 04:50:00,78.7,63.2,29.64,SE,135,3.0,8.0,59,0.00,,SKC,0.00,0.00,VWS V14.00,2013-08-30 09:50:00,
2013-08-30 05:00:00,78.5,63.5,29.64,SE,135,3.0,7.0,60,0.00,,SKC,0.00,0.00,VWS V14.00,2013-08-30 10:00:00,
2013-08-30 05:10:00,78.5,63.5,29.65,SE,135,2.0,7.0,60,0.00,,SKC,0.00,0.00,VWS V14.00,2013-08-30 10:10:00,
2013-08-30 05:20:00,78.4,63.8,29.64,SE,135,2.0,6.0,61,0.00,,SKC,0.00,0.00,VWS V14.00,2013-08-30 10:20:00,
2013-08-30 05:30:00,78.3,63.8,29.65,SE,135,3.0,9.0,61,0.00,,SKC,0.00,0.00,VWS V14.00,2013-08-30 10:30:00,
2013-08-30 05:40:00,78.2,63.7,29.65,SE,135,3.0,9.0,61,0.00,,SKC,0.00,0.00,VWS V14.00,2013-08-30 10:40:00,
2013-08-30 05:50:00,78.1,63.6,29.64,SE,135,1.0,8.0,61,0.00,,SKC,0.00,0.00,VWS V14.00,2013-08-30 10:50:00,
2013-08-30 06:00:00,77.9,63.4,29.65,SE,135,0.0,2.0,61,0.00,,SKC,0.00,0.00,VWS V14.00,2013-08-30 11:00:00,
2013-08-30 06:10:00,77.6,63.1,29.65,SE,135,1.0,5.0,61,0.00,,SKC,0.00,0.00,VWS V14.00,2013-08-30 11:10:00,
2013-08-30 06:20:00,77.5,63.0,29.65,SE,135,1.0,4.0,61,0.00,,SKC,0.00,0.00,VWS V14.00,2013-08-30 11:20:00,
2013-08-30 06:30:00,77.4,62.9,29.65,SE,135,1.0,5.0,61,0.00,,SKC,0.00,0.00,VWS V14.00,2013-08-30 11:30:00,
2013-08-30 06:40:00,77.4,62.9,29.65,SE,135,2.0,7.0,61,0.00,,SKC,0.00,0.00,VWS V14.00,2013-08-30 11:40:00,
2013-08-30 06:50:00,77.3,62.8,29.66,SE,135,2.0,6.0,61,0.00,,SKC,0.00,0.00,VWS V14.00,2013-08-30 11:50:00,
2013-08-30 07:00:00,77.3,62.8,29.66,SE,135,2.0,6.0,61,0.00,,SKC,0.00,0.00,VWS V14.00,2013-08-30 12:00:00,
2013-08-30 07:10:00,77.1,62.6,29.66,SE,135,2.0,6.0,61,0.00,,SKC,0.00,0.00,VWS V14.00,2013-08-30 12:10:00,
2013-08-30 07:20:00,77.0,63.0,29.66,SE,135,2.0,5.0,62,0.00,,SKC,0.00,7.00,VWS V14.00,2013-08-30 12:20:00,
2013-08-30 07:30:00,76.9,63.4,29.66,SE,135,2.0,5.0,63,0.00,,SKC,0.00,16.00,VWS V14.00,2013-08-30 12:30:00,
2013-08-30 07:40:00,76.8,63.7,29.66,SE,135,3.0,7.0,64,0.00,,SKC,0.00,26.00,VWS V14.00,2013-08-30 12:40:00,
2013-08-30 07:50:00,76.8,64.2,29.67,SE,135,3.0,7.0,65,0.00,,SKC,0.00,36.00,VWS V14.00,2013-08-30 12:50:00,
2013-08-30 08:00:00,76.7,64.5,29.66,SE,135,1.0,5.0,66,0.00,,SKC,0.00,45.00,VWS V14.00,2013-08-30 13:00:00,
2013-08-30 08:10:00,76.7,64.9,29.67,SE,135,1.0,5.0,67,0.00,,SKC,0.00,62.00,VWS V14.00,2013-08-30 13:10:00,
2013-08-30 08:20:00,76.9,65.5,29.67,SE,135,2.0,6.0,68,0.00,,SKC,0.00,83.00,VWS V14.00,2013-08-30 13:20:00,
2013-08-30 08:30:00,77.4,66.0,29.67,SE,135,4.0,9.0,68,0.00,,SKC,0.00,92.00,VWS V14.00,2013-08-30 13:30:00,
2013-08-30 08:40:00,78.0,65.7,29.67,SE,135,4.0,7.0,66,0.00,,SKC,0.00,98.00,VWS V14.00,2013-08-30 13:40:00,
2013-08-30 08:50:00,78.3,65.6,29.67,SE,135,4.0,7.0,65,0.00,,SKC,0.00,84.00,VWS V14.00,2013-08-30 13:50:00,
2013-08-30 09:00:00,78.9,65.2,29.67,SE,135,4.0,7.0,63,0.00,,SKC,0.00,171.00,VWS V14.00,2013-08-30 14:00:00,
2013-08-30 09:10:00,80.1,65.9,29.68,SE,135,5.0,9.0,62,0.00,,SKC,0.00,309.00,VWS V14.00,2013-08-30 14:10:00,
2013-08-30 09:20:00,81.5,65.3,29.67,SSE,158,7.0,12.0,58,0.00,,SKC,0.00,341.00,VWS V14.00,2013-08-30 14:20:00,
2013-08-30 09:30:00,82.5,65.2,29.68,SSE,158,6.0,11.0,56,0.00,,SKC,0.00,372.00,VWS V14.00,2013-08-30 14:30:00,
2013-08-30 09:40:00,83.5,65.1,29.68,SSE,158,6.0,10.0,54,0.00,,SKC,0.00,405.00,VWS V14.00,2013-08-30 14:40:00,
2013-08-30 09:50:00,84.5,65.5,29.68,SSE,158,5.0,9.0,53,0.00,,SKC,0.00,437.00,VWS V14.00,2013-08-30 14:50:00,
2013-08-30 10:00:00,85.3,65.1,29.68,SSE,158,6.0,10.0,51,0.00,,SKC,0.00,469.00,VWS V14.00,2013-08-30 15:00:00,
2013-08-30 10:10:00,86.4,65.0,29.68,SSE,158,7.0,12.0,49,0.00,,SKC,0.00,505.00,VWS V14.00,2013-08-30 15:10:00,
2013-08-30 10:20:00,87.1,65.6,29.68,SSE,158,6.0,11.0,49,0.00,,SKC,0.00,536.00,VWS V14.00,2013-08-30 15:20:00,
2013-08-30 10:30:00,88.1,65.3,29.68,SSE,158,5.0,11.0,47,0.00,,SKC,0.00,571.00,VWS V14.00,2013-08-30 15:30:00,
2013-08-30 10:40:00,88.9,65.5,29.68,SSE,158,5.0,10.0,46,0.00,,SKC,0.00,601.00,VWS V14.00,2013-08-30 15:40:00,
2013-08-30 10:50:00,89.5,65.4,29.68,SSE,158,4.0,10.0,45,0.00,,SKC,0.00,627.00,VWS V14.00,2013-08-30 15:50:00,
2013-08-30 11:00:00,90.5,65.0,29.67,SSE,158,4.0,12.0,43,0.00,,SKC,0.00,652.00,VWS V14.00,2013-08-30 16:00:00,
2013-08-30 11:10:00,91.1,64.8,29.67,SSE,158,3.0,9.0,42,0.00,,SKC,0.00,677.00,VWS V14.00,2013-08-30 16:10:00,
2013-08-30 11:20:00,91.2,63.5,29.68,SSE,158,5.0,10.0,40,0.00,,SKC,0.00,702.00,VWS V14.00,2013-08-30 16:20:00,
2013-08-30 11:30:00,92.1,64.3,29.67,SSE,158,3.0,8.0,40,0.00,,SKC,0.00,725.00,VWS V14.00,2013-08-30 16:30:00,
2013-08-30 11:40:00,93.1,64.5,29.67,SSE,158,3.0,8.0,39,0.00,,SKC,0.00,758.00,VWS V14.00,2013-08-30 16:40:00,
2013-08-30 11:50:00,93.2,64.6,29.66,SSE,158,4.0,12.0,39,0.00,,SKC,0.00,782.00,VWS V14.00,2013-08-30 16:50:00,
2013-08-30 12:00:00,93.7,63.5,29.66,SSE,158,2.0,7.0,37,0.00,,SKC,0.00,762.00,VWS V14.00,2013-08-30 17:00:00,
2013-08-30 12:10:00,94.1,63.9,29.66,SSE,158,2.0,7.0,37,0.00,,SKC,0.00,676.00,VWS V14.00,2013-08-30 17:10:00,
2013-08-30 12:20:00,94.1,63.9,29.65,SSE,158,4.0,9.0,37,0.00,,SKC,0.00,498.00,VWS V14.00,2013-08-30 17:20:00,
2013-08-30 12:30:00,94.0,63.8,29.65,SSE,158,4.0,8.0,37,0.00,,SKC,0.00,560.00,VWS V14.00,2013-08-30 17:30:00,
2013-08-30 12:40:00,94.2,64.0,29.64,SSE,158,6.0,11.0,37,0.00,,SKC,0.00,910.00,VWS V14.00,2013-08-30 17:40:00,
2013-08-30 12:50:00,95.0,63.9,29.64,SSE,158,3.0,7.0,36,0.00,,SKC,0.00,412.00,VWS V14.00,2013-08-30 17:50:00,
2013-08-30 13:00:00,94.4,64.1,29.64,SSE,158,2.0,7.0,37,0.00,,SKC,0.00,240.00,VWS V14.00,2013-08-30 18:00:00,
2013-08-30 13:10:00,94.7,63.6,29.64,SSE,158,3.0,8.0,36,0.00,,SKC,0.00,996.00,VWS V14.00,2013-08-30 18:10:00,
2013-08-30 13:20:00,96.0,64.8,29.63,SSE,158,4.0,11.0,36,0.00,,SKC,0.00,986.00,VWS V14.00,2013-08-30 18:20:00,
2013-08-30 13:30:00,97.4,64.3,29.62,SSE,158,4.0,10.0,34,0.00,,SKC,0.00,988.00,VWS V14.00,2013-08-30 18:30:00,
2013-08-30 13:40:00,98.0,64.0,29.61,SSE,158,3.0,8.0,33,0.00,,SKC,0.00,965.00,VWS V14.00,2013-08-30 18:40:00,
2013-08-30 13:50:00,98.1,64.1,29.61,SSE,158,3.0,7.0,33,0.00,,SKC,0.00,990.00,VWS V14.00,2013-08-30 18:50:00,
2013-08-30 14:00:00,98.2,64.2,29.60,SSE,158,3.0,8.0,33,0.00,,SKC,0.00,840.00,VWS V14.00,2013-08-30 19:00:00,
2013-08-30 14:10:00,98.6,63.7,29.59,SSE,158,4.0,19.0,32,0.00,,SKC,0.00,1041.00,VWS V14.00,2013-08-30 19:10:00,
2013-08-30 14:20:00,98.5,63.6,29.59,NNW,338,4.0,10.0,32,0.00,,SKC,0.00,979.00,VWS V14.00,2013-08-30 19:20:00,
2013-08-30 14:30:00,97.9,63.0,29.58,NNW,338,5.0,11.0,32,0.00,,SKC,0.00,961.00,VWS V14.00,2013-08-30 19:30:00,
2013-08-30 14:40:00,98.2,62.4,29.58,NNW,338,4.0,10.0,31,0.00,,SKC,0.00,737.00,VWS V14.00,2013-08-30 19:40:00,
2013-08-30 14:50:00,97.1,62.4,29.58,North,0,2.0,7.0,32,0.00,,SKC,0.00,204.00,VWS V14.00,2013-08-30 19:50:00,
2013-08-30 15:00:00,96.5,62.7,29.58,North,0,4.0,12.0,33,0.00,,SKC,0.00,800.00,VWS V14.00,2013-08-30 20:00:00,
2013-08-30 15:10:00,97.8,63.0,29.57,NNE,22,3.0,8.0,32,0.00,,SKC,0.00,953.00,VWS V14.00,2013-08-30 20:10:00,
2013-08-30 15:20:00,99.4,63.5,29.57,NNE,22,3.0,8.0,31,0.00,,SKC,0.00,923.00,VWS V14.00,2013-08-30 20:20:00,
2013-08-30 15:40:00,99.4,63.5,29.57,NNE,22,3.0,8.0,31,0.00,,SKC,0.00,923.00,VWS V14.00,2013-08-30 20:40:00,
2013-08-30 15:42:00,99.4,63.5,29.57,NNE,22,3.0,8.0,31,0.00,,SKC,0.00,923.00,VWS V14.00,2013-08-30 20:42:00,
2013-08-30 15:47:00,100.0,63.0,29.54,NNE,33,6.0,10.0,30,0.00,,SKC,0.00,763.00,VWS V14.00,2013-08-30 20:47:00,
2013-08-30 15:50:00,99.5,62.6,29.54,NNE,33,3.0,10.0,30,0.00,,SKC,0.00,276.00,VWS V14.01,2013-08-30 20:50:00,
2013-08-30 15:52:00,99.5,62.6,29.54,NNE,33,3.0,3.0,30,0.00,,SKC,0.00,276.00,VWS V14.00,2013-08-30 20:52:00,
2013-08-30 15:57:00,99.2,62.3,29.54,NNE,33,3.0,4.0,30,0.00,,SKC,0.00,156.00,VWS V14.00,2013-08-30 20:57:00,
2013-08-30 16:00:00,98.7,61.9,29.54,NNE,33,4.0,7.0,30,0.00,,SKC,0.00,193.00,VWS V14.01,2013-08-30 21:00:00,
2013-08-30 16:02:00,98.6,61.8,29.54,NNE,33,4.0,5.0,30,0.00,,SKC,0.00,193.00,VWS V14.00,2013-08-30 21:02:00,
2013-08-30 16:07:00,97.8,61.1,29.54,NNE,33,3.0,6.0,30,0.00,,SKC,0.00,237.00,VWS V14.00,2013-08-30 21:07:00,
2013-08-30 16:10:00,97.2,61.5,29.54,NNE,33,2.0,6.0,31,0.00,,SKC,0.00,171.00,VWS V14.01,2013-08-30 21:10:00,
2013-08-30 16:12:00,97.2,61.5,29.53,NNE,33,2.0,2.0,31,0.00,,SKC,0.00,171.00,VWS V14.00,2013-08-30 21:12:00,
2013-08-30 16:17:00,96.7,61.1,29.53,NNE,33,2.0,6.0,31,0.00,,SKC,0.00,193.00,VWS V14.00,2013-08-30 21:17:00,
2013-08-30 16:20:00,96.6,61.9,29.53,NNE,33,1.0,6.0,32,0.00,,SKC,0.00,791.00,VWS V14.01,2013-08-30 21:20:00,
2013-08-30 16:22:00,96.6,61.9,29.53,NNE,33,1.0,1.0,32,0.00,,SKC,0.00,784.00,VWS V14.00,2013-08-30 21:22:00,
2013-08-30 16:27:00,97.5,62.7,29.53,NNE,33,0.0,6.0,32,0.00,,SKC,0.00,763.00,VWS V14.00,2013-08-30 21:27:00,
2013-08-30 16:30:00,98.5,62.7,29.53,NNE,33,5.0,7.0,31,0.00,,SKC,0.00,735.00,VWS V14.01,2013-08-30 21:30:00,
2013-08-30 16:32:00,98.6,62.8,29.52,NNE,33,4.0,4.0,31,0.00,,SKC,0.00,735.00,VWS V14.00,2013-08-30 21:32:00,
2013-08-30 16:37:00,98.9,62.1,29.52,NE,49,5.0,13.0,30,0.00,,SKC,0.00,148.00,VWS V14.00,2013-08-30 21:37:00,
2013-08-30 16:40:00,98.2,61.5,29.53,NE,49,10.0,13.0,30,0.00,,SKC,0.00,132.00,VWS V14.01,2013-08-30 21:40:00,
2013-08-30 16:42:00,98.2,61.5,29.52,NE,49,5.0,7.0,30,0.00,,SKC,0.00,132.00,VWS V14.00,2013-08-30 21:42:00,
2013-08-30 16:47:00,97.3,61.6,29.52,NE,49,6.0,8.0,31,0.00,,SKC,0.00,132.00,VWS V14.00,2013-08-30 21:47:00,
2013-08-30 16:50:00,96.6,61.0,29.52,NE,50,6.0,13.0,31,0.00,,SKC,0.00,127.00,VWS V14.01,2013-08-30 21:50:00,
2013-08-30 16:52:00,96.5,61.0,29.52,NE,50,4.0,4.0,31,0.00,,SKC,0.00,127.00,VWS V14.00,2013-08-30 21:52:00,
2013-08-30 16:57:00,96.1,61.5,29.52,NE,50,0.0,5.0,32,0.00,,SKC,0.00,141.00,VWS V14.00,2013-08-30 21:57:00,
2013-08-30 17:00:00,96.1,61.5,29.52,NE,50,3.0,5.0,32,0.00,,SKC,0.00,148.00,VWS V14.01,2013-08-30 22:00:00,
2013-08-30 17:02:00,96.1,61.5,29.52,NE,50,5.0,5.0,32,0.00,,SKC,0.00,148.00,VWS V14.00,2013-08-30 22:02:00,
2013-08-30 17:07:00,96.0,61.4,29.52,NE,53,5.0,12.0,32,0.00,,SKC,0.00,156.00,VWS V14.00,2013-08-30 22:07:00,
2013-08-30 17:10:00,95.9,61.3,29.52,NE,53,0.0,12.0,32,0.00,,SKC,0.00,181.00,VWS V14.01,2013-08-30 22:10:00,
2013-08-30 17:12:00,96.0,61.4,29.52,NE,53,0.0,0.0,32,0.00,,SKC,0.00,181.00,VWS V14.00,2013-08-30 22:12:00,
2013-08-30 17:17:00,96.1,61.5,29.52,NE,53,7.0,7.0,32,0.00,,SKC,0.00,587.00,VWS V14.00,2013-08-30 22:17:00,
2013-08-30 17:20:00,96.5,61.8,29.52,NE,53,8.0,12.0,32,0.00,,SKC,0.00,158.00,VWS V14.01,2013-08-30 22:20:00,
2013-08-30 17:22:00,96.5,61.8,29.52,NE,53,8.0,8.0,32,0.00,,SKC,0.00,158.00,VWS V14.00,2013-08-30 22:22:00,
2013-08-30 17:27:00,96.6,61.0,29.52,NE,53,0.0,10.0,31,0.00,,SKC,0.00,522.00,VWS V14.00,2013-08-30 22:27:00,
2013-08-30 17:30:00,96.7,61.1,29.51,NE,53,2.0,10.0,31,0.00,,SKC,0.00,134.00,VWS V14.01,2013-08-30 22:30:00,
2013-08-30 17:32:00,96.6,61.0,29.51,NE,53,3.0,3.0,31,0.00,,SKC,0.00,134.00,VWS V14.00,2013-08-30 22:32:00,
2013-08-30 17:37:00,96.7,61.1,29.51,NE,53,3.0,5.0,31,0.00,,SKC,0.00,118.00,VWS V14.00,2013-08-30 22:37:00,
2013-08-30 17:40:00,96.8,61.2,29.51,NE,53,3.0,10.0,31,0.00,,SKC,0.00,223.00,VWS V14.01,2013-08-30 22:40:00,
2013-08-30 17:42:00,96.8,61.2,29.51,NE,53,2.0,4.0,31,0.00,,SKC,0.00,223.00,VWS V14.00,2013-08-30 22:42:00,
2013-08-30 17:47:00,96.9,61.3,29.52,NE,53,5.0,8.0,31,0.00,,SKC,0.00,130.00,VWS V14.00,2013-08-30 22:47:00,
2013-08-30 17:50:00,96.9,61.3,29.51,NE,53,0.0,8.0,31,0.00,,SKC,0.00,399.00,VWS V14.01,2013-08-30 22:50:00,
2013-08-30 17:52:00,96.9,61.3,29.51,NE,53,0.0,0.0,31,0.00,,SKC,0.00,399.00,VWS V14.00,2013-08-30 22:52:00,
2013-08-30 17:57:00,96.8,61.2,29.51,NE,53,0.0,5.0,31,0.00,,SKC,0.00,118.00,VWS V14.00,2013-08-30 22:57:00,
2013-08-30 18:00:00,96.8,61.2,29.51,NE,53,2.0,5.0,31,0.00,,SKC,0.00,230.00,VWS V14.01,2013-08-30 23:00:00,
2013-08-30 18:02:00,96.8,61.2,29.51,NE,53,3.0,3.0,31,0.00,,SKC,0.00,230.00,VWS V14.00,2013-08-30 23:02:00,
2013-08-30 18:07:00,96.8,61.2,29.51,NE,53,0.0,5.0,31,0.00,,SKC,0.00,90.00,VWS V14.00,2013-08-30 23:07:00,
2013-08-30 18:10:00,96.6,61.0,29.51,NE,53,0.0,6.0,31,0.00,,SKC,0.00,98.00,VWS V14.01,2013-08-30 23:10:00,
2013-08-30 18:12:00,96.6,61.0,29.51,NE,53,0.0,0.0,31,0.00,,SKC,0.00,104.00,VWS V14.00,2013-08-30 23:12:00,
2013-08-30 18:17:00,96.4,61.8,29.51,NE,53,0.0,5.0,32,0.00,,SKC,0.00,320.00,VWS V14.00,2013-08-30 23:17:00,
2013-08-30 18:20:00,96.5,61.0,29.51,NE,53,0.0,5.0,31,0.00,,SKC,0.00,292.00,VWS V14.01,2013-08-30 23:20:00,
2013-08-30 18:22:00,96.5,61.0,29.51,NE,53,1.0,1.0,31,0.00,,SKC,0.00,292.00,VWS V14.00,2013-08-30 23:22:00,
2013-08-30 18:27:00,96.6,61.0,29.51,NE,53,0.0,8.0,31,0.00,,SKC,0.00,274.00,VWS V14.00,2013-08-30 23:27:00,
2013-08-30 18:30:00,96.7,61.1,29.51,NE,53,2.0,8.0,31,0.00,,SKC,0.00,255.00,VWS V14.01,2013-08-30 23:30:00,
2013-08-30 18:32:00,96.7,61.1,29.51,NE,53,3.0,5.0,31,0.00,,SKC,0.00,255.00,VWS V14.00,2013-08-30 23:32:00,
2013-08-30 18:37:00,96.9,61.3,29.51,NE,53,2.0,8.0,31,0.00,,SKC,0.00,120.00,VWS V14.00,2013-08-30 23:37:00,
2013-08-30 18:40:00,96.7,61.1,29.51,NE,53,1.0,8.0,31,0.00,,SKC,0.00,125.00,VWS V14.01,2013-08-30 23:40:00,
2013-08-30 18:42:00,96.6,61.0,29.51,NE,53,0.0,1.0,31,0.00,,SKC,0.00,195.00,VWS V14.00,2013-08-30 23:42:00,
2013-08-30 18:47:00,96.4,60.9,29.51,NE,53,0.0,4.0,31,0.00,,SKC,0.00,188.00,VWS V14.00,2013-08-30 23:47:00,
2013-08-30 18:50:00,96.4,60.9,29.51,NE,53,0.0,7.0,31,0.00,,SKC,0.00,188.00,VWS V14.01,2013-08-30 23:50:00,
2013-08-30 18:52:00,96.4,60.9,29.51,NE,53,4.0,4.0,31,0.00,,SKC,0.00,188.00,VWS V14.00,2013-08-30 23:52:00,
2013-08-30 18:57:00,96.3,60.8,29.51,NE,53,4.0,4.0,31,0.00,,SKC,0.00,167.00,VWS V14.00,2013-08-30 23:57:00,
2013-08-30 19:00:00,96.3,60.8,29.51,NE,53,2.0,5.0,31,0.00,,SKC,0.00,146.00,VWS V14.01,2013-08-31 00:00:00,
2013-08-30 19:02:00,96.4,60.9,29.51,NE,53,0.0,2.0,31,0.00,,SKC,0.00,146.00,VWS V14.00,2013-08-31 00:02:00,
2013-08-30 19:07:00,96.4,60.9,29.50,NE,53,4.0,5.0,31,0.00,,SKC,0.00,120.00,VWS V14.00,2013-08-31 00:07:00,
2013-08-30 19:10:00,96.3,60.8,29.51,NE,53,2.0,6.0,31,0.00,,SKC,0.00,98.00,VWS V14.01,2013-08-31 00:10:00,
2013-08-30 19:12:00,96.3,60.8,29.51,NE,53,2.0,2.0,31,0.00,,SKC,0.00,98.00,VWS V14.00,2013-08-31 00:12:00,
2013-08-30 19:17:00,96.1,60.6,29.51,NE,53,0.0,3.0,31,0.00,,SKC,0.00,83.00,VWS V14.00,2013-08-31 00:17:00,
2013-08-30 19:20:00,96.0,60.5,29.51,NE,53,4.0,4.0,31,0.00,,SKC,0.00,70.00,VWS V14.01,2013-08-31 00:20:00,
2013-08-30 19:22:00,96.0,60.5,29.51,NE,53,4.0,4.0,31,0.00,,SKC,0.00,70.00,VWS V14.00,2013-08-31 00:22:00,
2013-08-30 19:27:00,95.8,60.3,29.51,NE,53,4.0,5.0,31,0.00,,SKC,0.00,47.00,VWS V14.00,2013-08-31 00:27:00,
2013-08-30 19:30:00,95.3,60.8,29.51,NE,53,3.0,7.0,32,0.00,,SKC,0.00,28.00,VWS V14.01,2013-08-31 00:30:00,
2013-08-30 19:32:00,95.3,60.8,29.51,NE,53,3.0,3.0,32,0.00,,SKC,0.00,28.00,VWS V14.00,2013-08-31 00:32:00,
2013-08-30 19:37:00,94.9,60.5,29.51,NE,53,2.0,6.0,32,0.00,,SKC,0.00,25.00,VWS V14.00,2013-08-31 00:37:00,
2013-08-30 19:40:00,94.5,60.1,29.51,NE,53,0.0,6.0,32,0.00,,SKC,0.00,21.00,VWS V14.01,2013-08-31 00:40:00,
2013-08-30 19:42:00,94.5,60.1,29.51,NE,53,0.0,0.0,32,0.00,,SKC,0.00,21.00,VWS V14.00,2013-08-31 00:42:00,
2013-08-30 19:47:00,94.1,60.6,29.51,NE,53,0.0,5.0,33,0.00,,SKC,0.00,14.00,VWS V14.00,2013-08-31 00:47:00,
2013-08-30 19:50:00,93.9,60.5,29.51,NE,53,0.0,5.0,33,0.00,,SKC,0.00,11.00,VWS V14.01,2013-08-31 00:50:00,
2013-08-30 19:52:00,93.8,60.4,29.51,NE,53,0.0,0.0,33,0.00,,SKC,0.00,11.00,VWS V14.00,2013-08-31 00:52:00,
2013-08-30 19:57:00,93.5,60.1,29.51,NE,53,0.0,2.0,33,0.00,,SKC,0.00,5.00,VWS V14.00,2013-08-31 00:57:00,
2013-08-30 20:00:00,93.3,59.9,29.51,NE,53,0.0,2.0,33,0.00,,SKC,0.00,0.00,VWS V14.01,2013-08-31 01:00:00,
2013-08-30 20:02:00,93.3,60.8,29.51,NE,53,0.0,0.0,34,0.00,,SKC,0.00,0.00,VWS V14.00,2013-08-31 01:02:00,
2013-08-30 20:07:00,93.1,60.6,29.52,NE,53,0.0,0.0,34,0.00,,SKC,0.00,0.00,VWS V14.00,2013-08-31 01:07:00,
2013-08-30 20:10:00,92.8,60.3,29.52,NE,53,0.0,0.0,34,0.00,,SKC,0.00,0.00,VWS V14.01,2013-08-31 01:10:00,
2013-08-30 20:12:00,92.8,60.3,29.52,NE,53,0.0,0.0,34,0.00,,SKC,0.00,0.00,VWS V14.00,2013-08-31 01:12:00,
2013-08-30 20:17:00,92.4,60.8,29.52,NE,53,0.0,1.0,35,0.00,,SKC,0.00,0.00,VWS V14.00,2013-08-31 01:17:00,
2013-08-30 20:20:00,92.0,60.5,29.52,NE,53,0.0,1.0,35,0.00,,SKC,0.00,0.00,VWS V14.01,2013-08-31 01:20:00,
2013-08-30 20:22:00,92.0,60.5,29.52,NE,53,0.0,0.0,35,0.00,,SKC,0.00,0.00,VWS V14.00,2013-08-31 01:22:00,
2013-08-30 20:26:00,91.6,60.1,29.52,NE,53,0.0,0.0,35,0.00,,SKC,0.00,0.00,VWS V14.00,2013-08-31 01:26:00,
2013-08-30 20:30:00,91.2,60.5,29.52,NE,53,0.0,0.0,36,0.00,,SKC,0.00,0.00,VWS V14.01,2013-08-31 01:30:00,
2013-08-30 20:31:00,91.2,60.5,29.52,NE,53,0.0,0.0,36,0.00,,SKC,0.00,0.00,VWS V14.00,2013-08-31 01:31:00,
2013-08-30 20:36:00,90.8,60.2,29.53,NE,53,0.0,0.0,36,0.00,,SKC,0.00,0.00,VWS V14.00,2013-08-31 01:36:00,
2013-08-30 20:40:00,90.5,60.7,29.53,NE,53,0.0,0.0,37,0.00,,SKC,0.00,0.00,VWS V14.01,2013-08-31 01:40:00,
2013-08-30 20:41:00,90.5,60.7,29.53,NE,53,0.0,0.0,37,0.00,,SKC,0.00,0.00,VWS V14.00,2013-08-31 01:41:00,
2013-08-30 20:46:00,90.1,60.3,29.53,NE,53,0.0,0.0,37,0.00,,SKC,0.00,0.00,VWS V14.00,2013-08-31 01:46:00,
2013-08-30 20:50:00,89.9,60.2,29.53,NE,53,0.0,0.0,37,0.00,,SKC,0.00,0.00,VWS V14.01,2013-08-31 01:50:00,
2013-08-30 20:51:00,89.9,60.2,29.53,NE,53,0.0,0.0,37,0.00,,SKC,0.00,0.00,VWS V14.00,2013-08-31 01:51:00,
2013-08-30 20:56:00,89.5,60.6,29.53,NE,53,0.0,0.0,38,0.00,,SKC,0.00,0.00,VWS V14.00,2013-08-31 01:56:00,
2013-08-30 21:00:00,89.2,60.3,29.53,NE,53,0.0,0.0,38,0.00,,SKC,0.00,0.00,VWS V14.01,2013-08-31 02:00:00,
2013-08-30 21:01:00,89.2,60.3,29.53,NE,53,0.0,0.0,38,0.00,,SKC,0.00,0.00,VWS V14.00,2013-08-31 02:01:00,
2013-08-30 21:06:00,88.9,60.8,29.53,NE,53,0.0,1.0,39,0.00,,SKC,0.00,0.00,VWS V14.00,2013-08-31 02:06:00,
2013-08-30 21:10:00,88.6,61.2,29.53,NE,53,0.0,1.0,40,0.00,,SKC,0.00,0.00,VWS V14.01,2013-08-31 02:10:00,
2013-08-30 21:11:00,88.6,61.2,29.53,NE,53,0.0,0.0,40,0.00,,SKC,0.00,0.00,VWS V14.00,2013-08-31 02:11:00,
2013-08-30 21:16:00,88.1,60.8,29.54,NE,53,1.0,3.0,40,0.00,,SKC,0.00,0.00,VWS V14.00,2013-08-31 02:16:00,
2013-08-30 21:20:00,87.7,60.4,29.54,NE,53,2.0,4.0,40,0.00,,SKC,0.00,0.00,VWS V14.01,2013-08-31 02:20:00,
2013-08-30 21:21:00,87.7,60.4,29.54,NE,53,2.0,4.0,40,0.00,,SKC,0.00,0.00,VWS V14.00,2013-08-31 02:21:00,
2013-08-30 21:26:00,87.5,60.9,29.54,NE,53,2.0,4.0,41,0.00,,SKC,0.00,0.00,VWS V14.00,2013-08-31 02:26:00,
2013-08-30 21:30:00,87.7,61.1,29.54,NE,53,2.0,4.0,41,0.00,,SKC,0.00,0.00,VWS V14.01,2013-08-31 02:30:00,
2013-08-30 21:31:00,87.7,61.1,29.54,NE,53,2.0,4.0,41,0.00,,SKC,0.00,0.00,VWS V14.00,2013-08-31 02:31:00,
2013-08-30 21:36:00,87.8,61.2,29.53,NE,53,2.0,4.0,41,0.00,,SKC,0.00,0.00,VWS V14.00,2013-08-31 02:36:00,
2013-08-30 21:40:00,87.9,61.3,29.53,NE,53,0.0,4.0,41,0.00,,SKC,0.00,0.00,VWS V14.01,2013-08-31 02:40:00,
2013-08-30 21:41:00,87.9,61.3,29.53,NE,53,0.0,4.0,41,0.00,,SKC,0.00,0.00,VWS V14.00,2013-08-31 02:41:00,
2013-08-30 21:46:00,87.9,61.3,29.53,NE,53,0.0,3.0,41,0.00,,SKC,0.00,0.00,VWS V14.00,2013-08-31 02:46:00,
2013-08-30 21:50:00,88.0,61.4,29.53,NE,53,0.0,4.0,41,0.00,,SKC,0.00,0.00,VWS V14.01,2013-08-31 02:50:00,
2013-08-30 21:51:00,88.0,61.4,29.53,NE,53,0.0,4.0,41,0.00,,SKC,0.00,0.00,VWS V14.00,2013-08-31 02:51:00,
2013-08-30 21:56:00,88.3,60.9,29.53,NE,53,0.0,5.0,40,0.00,,SKC,0.00,0.00,VWS V14.00,2013-08-31 02:56:00,
2013-08-30 22:00:00,88.7,61.3,29.53,NE,53,0.0,5.0,40,0.00,,SKC,0.00,0.00,VWS V14.01,2013-08-31 03:00:00,
2013-08-30 22:01:00,88.7,61.3,29.53,NE,53,0.0,5.0,40,0.00,,SKC,0.00,0.00,VWS V14.00,2013-08-31 03:01:00,
2013-08-30 22:06:00,88.8,61.4,29.54,NE,53,0.0,2.0,40,0.00,,SKC,0.00,0.00,VWS V14.00,2013-08-31 03:06:00,
2013-08-30 22:10:00,88.7,62.0,29.54,NE,53,0.0,2.0,41,0.00,,SKC,0.00,0.00,VWS V14.01,2013-08-31 03:10:00,
2013-08-30 22:11:00,88.7,62.0,29.54,NE,53,0.0,2.0,41,0.00,,SKC,0.00,0.00,VWS V14.00,2013-08-31 03:11:00,
2013-08-30 22:16:00,88.5,61.1,29.53,NE,53,0.0,1.0,40,0.00,,SKC,0.00,0.00,VWS V14.00,2013-08-31 03:16:00,
2013-08-30 22:20:00,88.3,61.6,29.53,NE,53,1.0,2.0,41,0.00,,SKC,0.00,0.00,VWS V14.01,2013-08-31 03:20:00,
2013-08-30 22:21:00,88.3,61.6,29.53,NE,53,1.0,2.0,41,0.00,,SKC,0.00,0.00,VWS V14.00,2013-08-31 03:21:00,
2013-08-30 22:26:00,88.1,61.5,29.53,NE,53,2.0,3.0,41,0.00,,SKC,0.00,0.00,VWS V14.00,2013-08-31 03:26:00,
2013-08-30 22:30:00,88.1,61.5,29.54,NE,53,1.0,4.0,41,0.00,,SKC,0.00,0.00,VWS V14.01,2013-08-31 03:30:00,
2013-08-30 22:31:00,88.1,61.5,29.54,NE,53,1.0,4.0,41,0.00,,SKC,0.00,0.00,VWS V14.00,2013-08-31 03:31:00,
2013-08-30 22:36:00,88.1,61.5,29.54,NE,53,0.0,2.0,41,0.00,,SKC,0.00,0.00,VWS V14.00,2013-08-31 03:36:00,
2013-08-30 22:40:00,88.0,61.4,29.54,NE,53,0.0,2.0,41,0.00,,SKC,0.00,0.00,VWS V14.01,2013-08-31 03:40:00,
2013-08-30 22:41:00,88.0,61.4,29.54,NE,53,0.0,2.0,41,0.00,,SKC,0.00,0.00,VWS V14.00,2013-08-31 03:41:00,
2013-08-30 22:46:00,87.8,61.2,29.53,NE,53,0.0,3.0,41,0.00,,SKC,0.00,0.00,VWS V14.00,2013-08-31 03:46:00,
2013-08-30 22:50:00,87.7,61.8,29.53,NE,53,0.0,3.0,42,0.00,,SKC,0.00,0.00,VWS V14.01,2013-08-31 03:50:00,
2013-08-30 22:51:00,87.7,61.8,29.53,NE,53,0.0,3.0,42,0.00,,SKC,0.00,0.00,VWS V14.00,2013-08-31 03:51:00,
2013-08-30 22:56:00,87.6,61.7,29.53,NE,53,0.0,1.0,42,0.00,,SKC,0.00,0.00,VWS V14.00,2013-08-31 03:56:00,
2013-08-30 23:00:00,87.5,61.6,29.53,NE,53,0.0,1.0,42,0.00,,SKC,0.00,0.00,VWS V14.01,2013-08-31 04:00:00,
2013-08-30 23:01:00,87.5,61.6,29.53,NE,53,0.0,1.0,42,0.00,,SKC,0.00,0.00,VWS V14.00,2013-08-31 04:01:00,
2013-08-30 23:02:00,87.5,61.6,29.53,NE,53,0.0,0.0,42,0.00,,SKC,0.00,0.00,VWS V14.00,2013-08-31 04:02:00,
2013-08-30 23:07:00,87.4,61.5,29.53,NE,53,0.0,1.0,42,0.00,,SKC,0.00,0.00,VWS V14.00,2013-08-31 04:07:00,
2013-08-30 23:10:00,87.2,62.0,29.53,NE,53,0.0,3.0,43,0.00,,SKC,0.00,0.00,VWS V14.01,2013-08-31 04:10:00,
2013-08-30 23:12:00,87.2,62.0,29.53,NE,53,1.0,1.0,43,0.00,,SKC,0.00,0.00,VWS V14.00,2013-08-31 04:12:00,
2013-08-30 23:17:00,86.9,62.4,29.53,NE,53,1.0,4.0,44,0.00,,SKC,0.00,0.00,VWS V14.00,2013-08-31 04:17:00,
2013-08-30 23:20:00,86.6,62.1,29.53,NE,53,2.0,4.0,44,0.00,,SKC,0.00,0.00,VWS V14.01,2013-08-31 04:20:00,
2013-08-30 23:22:00,86.5,62.0,29.53,NE,53,1.0,2.0,44,0.00,,SKC,0.00,0.00,VWS V14.00,2013-08-31 04:22:00,
2013-08-30 23:27:00,86.2,62.4,29.53,NE,53,1.0,4.0,45,0.00,,SKC,0.00,0.00,VWS V14.00,2013-08-31 04:27:00,
2013-08-30 23:30:00,85.8,62.0,29.53,NE,53,0.0,4.0,45,0.00,,SKC,0.00,0.00,VWS V14.01,2013-08-31 04:30:00,
2013-08-30 23:32:00,85.8,62.7,29.53,NE,53,1.0,1.0,46,0.00,,SKC,0.00,0.00,VWS V14.00,2013-08-31 04:32:00,
2013-08-30 23:37:00,85.4,62.9,29.53,NE,53,2.0,5.0,47,0.00,,SKC,0.00,0.00,VWS V14.00,2013-08-31 04:37:00,
2013-08-30 23:40:00,85.0,62.5,29.53,NE,53,3.0,5.0,47,0.00,,SKC,0.00,0.00,VWS V14.01,2013-08-31 04:40:00,
2013-08-30 23:42:00,85.0,62.5,29.53,NE,53,3.0,3.0,47,0.00,,SKC,0.00,0.00,VWS V14.00,2013-08-31 04:42:00,
2013-08-30 23:47:00,84.9,62.4,29.53,NE,53,3.0,5.0,47,0.00,,SKC,0.00,0.00,VWS V14.00,2013-08-31 04:47:00,
2013-08-30 23:50:00,84.9,63.0,29.53,NE,53,2.0,5.0,48,0.00,,SKC,0.00,0.00,VWS V14.01,2013-08-31 04:50:00,
2013-08-30 23:52:00,84.9,63.0,29.53,NE,53,3.0,3.0,48,0.00,,SKC,0.00,0.00,VWS V14.00,2013-08-31 04:52:00,
2013-08-30 23:57:00,84.9,63.0,29.53,NE,53,0.0,3.0,48,0.00,,SKC,0.00,0.00,VWS V14.00,2013-08-31 04:57:00,